Location: Mahannah Oil Field
(37.4664°N, 96.6003°W)
Time: 15:34:57
(UTC+00:00)

X-37B - Pass Details

Date: 02 December 2020
Orbit: 384 x 390 km, 45.0° (Epoch: 02 January)

Event Time Altitude Azimuth Distance (km) Brightness Sun altitude
Rises 01:06:56 0° 290° (WNW) 2,264 5.4 -23.0°
Reaches altitude 10° 01:09:22 10° 308° (NW) 1,411 3.9 -23.5°
Enters shadow 01:10:23 15° 324° (NW) 1,137 3.2 -23.7°
